| time (UTC) | temp C | wind direction | speed KPH | gust KPH | rain 1hr cm | rain 24hr cm | rain mn cm | humidity % | barometer mb |
| 20260506011502 | 11 | 351 | 9.7 | 19.3 | 0.00 | 0.00 | 0.00 | 73 | 1012.9 |
| 20260506011002 | 11 | 349 | 9.7 | 19.3 | 0.00 | 0.00 | 0.00 | 73 | 1012.9 |
| 20260506010502 | 11 | 350 | 9.7 | 22.5 | 0.00 | 0.00 | 0.00 | 73 | 1012.9 |
| 20260506010023 | 11 | 349 | 11.3 | 22.5 | 0.00 | 0.00 | 0.00 | 73 | 1012.9 |
| 20260506005502 | 11 | 348 | 11.3 | 24.1 | 0.00 | 0.00 | 0.00 | 73 | 1013.0 |
| 20260506005002 | 11 | 350 | 11.3 | 24.1 | 0.00 | 0.00 | 0.00 | 73 | 1012.9 |
| 20260506004523 | 11 | 351 | 9.7 | 22.5 | 0.00 | 0.00 | 0.00 | 73 | 1012.9 |
| 20260506004002 | 11 | 352 | 9.7 | 20.9 | 0.00 | 0.00 | 0.00 | 73 | 1012.9 |
| 20260506003523 | 11 | 352 | 9.7 | 17.7 | 0.00 | 0.00 | 0.00 | 73 | 1012.9 |
| 20260506003002 | 11 | 349 | 9.7 | 17.7 | 0.00 | 0.00 | 0.00 | 73 | 1013.0 |
| 20260506002502 | 11 | 347 | 8.0 | 16.1 | 0.00 | 0.00 | 0.00 | 73 | 1013.1 |
| 20260506002001 | 11 | 349 | 8.0 | 17.7 | 0.00 | 0.00 | 0.00 | 73 | 1013.0 |
| 20260506001502 | 11 | 347 | 8.0 | 17.7 | 0.00 | 0.00 | 0.00 | 73 | 1013.0 |
| 20260506001002 | 11 | 345 | 8.0 | 14.5 | 0.00 | 0.00 | 0.00 | 73 | 1013.0 |
| 20260506000502 | 11 | 346 | 8.0 | 14.5 | 0.00 | 0.00 | 0.00 | 73 | 1013.0 |
| 20260506000002 | 11 | 347 | 8.0 | 19.3 | 0.00 | 0.00 | 0.00 | 73 | 1012.9 |
| 20260505235502 | 11 | 352 | 9.7 | 19.3 | 0.00 | 0.00 | 0.00 | 73 | 1013.0 |
| 20260505235002 | 11 | 352 | 11.3 | 19.3 | 0.00 | 0.00 | 0.00 | 72 | 1013.0 |
| 20260505234502 | 11 | 353 | 9.7 | 20.9 | 0.00 | 0.00 | 0.00 | 72 | 1013.0 |
| 20260505234002 | 11 | 353 | 9.7 | 20.9 | 0.00 | 0.00 | 0.00 | 72 | 1013.0 |
| 20260505233502 | 12 | 346 | 9.7 | 20.9 | 0.00 | 0.00 | 0.00 | 72 | 1013.1 |
| 20260505233023 | 12 | 343 | 9.7 | 20.9 | 0.00 | 0.00 | 0.00 | 72 | 1013.0 |
| 20260505232502 | 12 | 342 | 9.7 | 17.7 | 0.00 | 0.00 | 0.00 | 72 | 1013.2 |
| 20260505232002 | 12 | 344 | 9.7 | 19.3 | 0.00 | 0.00 | 0.00 | 72 | 1013.1 |
| 20260505231502 | 12 | 344 | 9.7 | 20.9 | 0.00 | 0.00 | 0.00 | 72 | 1013.2 |
| 20260505231002 | 12 | 343 | 9.7 | 20.9 | 0.00 | 0.00 | 0.00 | 72 | 1013.2 |
| 20260505230502 | 12 | 343 | 11.3 | 22.5 | 0.00 | 0.00 | 0.00 | 72 | 1013.2 |
| 20260505230002 | 12 | 344 | 9.7 | 22.5 | 0.00 | 0.00 | 0.00 | 72 | 1013.3 |
| 20260505225502 | 12 | 347 | 9.7 | 20.9 | 0.00 | 0.00 | 0.00 | 71 | 1013.3 |
| 20260505225023 | 12 | 347 | 11.3 | 20.9 | 0.00 | 0.00 | 0.00 | 72 | 1013.4 |
| 20260505224502 | 12 | 346 | 11.3 | 20.9 | 0.00 | 0.00 | 0.00 | 72 | 1013.4 |
| 20260505224002 | 12 | 349 | 9.7 | 20.9 | 0.00 | 0.00 | 0.00 | 71 | 1013.3 |
| 20260505223502 | 12 | 347 | 11.3 | 20.9 | 0.00 | 0.00 | 0.00 | 71 | 1013.3 |
| 20260505223002 | 12 | 345 | 11.3 | 25.7 | 0.00 | 0.00 | 0.00 | 71 | 1013.4 |
| 20260505222502 | 12 | 345 | 9.7 | 25.7 | 0.00 | 0.00 | 0.00 | 71 | 1013.4 |
| 20260505222002 | 12 | 345 | 11.3 | 22.5 | 0.00 | 0.00 | 0.00 | 71 | 1013.4 |
| 20260505221502 | 12 | 345 | 11.3 | 22.5 | 0.00 | 0.00 | 0.00 | 71 | 1013.4 |
| 20260505221002 | 12 | 344 | 11.3 | 19.3 | 0.00 | 0.00 | 0.00 | 71 | 1013.4 |
| 20260505220502 | 12 | 346 | 9.7 | 19.3 | 0.00 | 0.00 | 0.00 | 71 | 1013.4 |
| 20260505220002 | 12 | 345 | 11.3 | 19.3 | 0.00 | 0.00 | 0.00 | 71 | 1013.5 |
| 20260505215502 | 12 | 343 | 11.3 | 19.3 | 0.00 | 0.00 | 0.00 | 71 | 1013.5 |
| 20260505215002 | 12 | 344 | 11.3 | 17.7 | 0.00 | 0.00 | 0.00 | 71 | 1013.4 |
| 20260505214523 | 12 | 349 | 9.7 | 17.7 | 0.00 | 0.00 | 0.00 | 71 | 1013.4 |
| 20260505214002 | 12 | 349 | 9.7 | 19.3 | 0.00 | 0.00 | 0.00 | 71 | 1013.4 |
| 20260505213502 | 12 | 348 | 9.7 | 19.3 | 0.00 | 0.00 | 0.00 | 70 | 1013.5 |
| 20260505213023 | 12 | 346 | 9.7 | 19.3 | 0.00 | 0.00 | 0.00 | 70 | 1013.4 |
| 20260505212502 | 12 | 342 | 8.0 | 19.3 | 0.00 | 0.00 | 0.00 | 70 | 1013.5 |
| 20260505212023 | 12 | 345 | 9.7 | 22.5 | 0.00 | 0.00 | 0.00 | 70 | 1013.5 |
| 20260505211502 | 12 | 347 | 9.7 | 22.5 | 0.00 | 0.00 | 0.00 | 70 | 1013.4 |
| 20260505211002 | 12 | 344 | 9.7 | 17.7 | 0.00 | 0.00 | 0.00 | 70 | 1013.5 |
| 20260505210502 | 12 | 344 | 8.0 | 20.9 | 0.00 | 0.00 | 0.00 | 70 | 1013.5 |
| 20260505210002 | 12 | 343 | 8.0 | 20.9 | 0.00 | 0.00 | 0.00 | 70 | 1013.5 |
| 20260505205502 | 12 | 348 | 8.0 | 17.7 | 0.00 | 0.00 | 0.00 | 70 | 1013.5 |
| 20260505205002 | 12 | 349 | 8.0 | 17.7 | 0.00 | 0.00 | 0.00 | 69 | 1013.5 |
| 20260505204502 | 13 | 346 | 8.0 | 17.7 | 0.00 | 0.00 | 0.00 | 69 | 1013.4 |
| 20260505204002 | 13 | 344 | 9.7 | 20.9 | 0.00 | 0.00 | 0.00 | 69 | 1013.5 |
| 20260505203502 | 13 | 343 | 9.7 | 20.9 | 0.00 | 0.00 | 0.00 | 69 | 1013.4 |
| 20260505203002 | 13 | 342 | 8.0 | 17.7 | 0.00 | 0.00 | 0.00 | 69 | 1013.3 |
| 20260505202502 | 13 | 343 | 8.0 | 17.7 | 0.00 | 0.00 | 0.00 | 69 | 1013.4 |
| 20260505202002 | 13 | 344 | 9.7 | 17.7 | 0.00 | 0.00 | 0.00 | 69 | 1013.4 |
| 20260505201502 | 13 | 347 | 8.0 | 19.3 | 0.00 | 0.00 | 0.00 | 69 | 1013.3 |
| 20260505201002 | 13 | 348 | 8.0 | 19.3 | 0.00 | 0.00 | 0.00 | 68 | 1013.4 |
| 20260505200502 | 13 | 345 | 8.0 | 19.3 | 0.00 | 0.00 | 0.00 | 68 | 1013.4 |
| 20260505200002 | 13 | 343 | 8.0 | 16.1 | 0.00 | 0.00 | 0.00 | 67 | 1013.3 |
| 20260505195502 | 13 | 345 | 8.0 | 16.1 | 0.00 | 0.00 | 0.00 | 67 | 1013.2 |
| 20260505195002 | 14 | 344 | 9.7 | 19.3 | 0.00 | 0.00 | 0.00 | 67 | 1013.2 |
| 20260505194502 | 14 | 342 | 8.0 | 19.3 | 0.00 | 0.00 | 0.00 | 66 | 1013.1 |
| 20260505194002 | 14 | 342 | 8.0 | 16.1 | 0.00 | 0.00 | 0.00 | 66 | 1013.0 |
| 20260505193502 | 14 | 343 | 8.0 | 19.3 | 0.00 | 0.00 | 0.00 | 66 | 1013.0 |
| 20260505193002 | 14 | 343 | 8.0 | 19.3 | 0.00 | 0.00 | 0.00 | 65 | 1013.0 |
| 20260505192502 | 14 | 344 | 8.0 | 19.3 | 0.00 | 0.00 | 0.00 | 65 | 1012.9 |
| 20260505192023 | 15 | 348 | 8.0 | 19.3 | 0.00 | 0.00 | 0.00 | 65 | 1012.8 |
| 20260505191523 | 15 | 346 | 6.4 | 16.1 | 0.00 | 0.00 | 0.00 | 64 | 1012.8 |
| 20260505191002 | 15 | 344 | 6.4 | 16.1 | 0.00 | 0.00 | 0.00 | 64 | 1012.8 |
| 20260505190502 | 15 | 342 | 8.0 | 16.1 | 0.00 | 0.00 | 0.00 | 64 | 1012.8 |
| 20260505190002 | 15 | 342 | 6.4 | 16.1 | 0.00 | 0.00 | 0.00 | 63 | 1012.8 |
| 20260505185502 | 15 | 343 | 6.4 | 17.7 | 0.00 | 0.00 | 0.00 | 63 | 1012.6 |
| 20260505185002 | 15 | 343 | 8.0 | 17.7 | 0.00 | 0.00 | 0.00 | 62 | 1012.5 |
| 20260505184502 | 15 | 341 | 6.4 | 16.1 | 0.00 | 0.00 | 0.00 | 62 | 1012.5 |
| 20260505184002 | 15 | 340 | 6.4 | 16.1 | 0.00 | 0.00 | 0.00 | 62 | 1012.6 |
| 20260505183502 | 15 | 342 | 6.4 | 19.3 | 0.00 | 0.00 | 0.00 | 62 | 1012.5 |
| 20260505183002 | 15 | 342 | 8.0 | 19.3 | 0.00 | 0.00 | 0.00 | 62 | 1012.5 |
| 20260505182523 | 15 | 344 | 8.0 | 17.7 | 0.00 | 0.00 | 0.00 | 62 | 1012.5 |
| 20260505182002 | 15 | 346 | 8.0 | 17.7 | 0.00 | 0.00 | 0.00 | 61 | 1012.5 |
| 20260505181502 | 15 | 344 | 8.0 | 17.7 | 0.00 | 0.00 | 0.00 | 61 | 1012.5 |
| 20260505181002 | 15 | 341 | 8.0 | 16.1 | 0.00 | 0.00 | 0.00 | 60 | 1012.5 |
| 20260505180502 | 16 | 339 | 8.0 | 17.7 | 0.00 | 0.00 | 0.00 | 60 | 1012.5 |
| 20260505180002 | 16 | 343 | 8.0 | 17.7 | 0.00 | 0.00 | 0.00 | 60 | 1012.4 |
| 20260505175502 | 16 | 346 | 8.0 | 17.7 | 0.00 | 0.00 | 0.00 | 60 | 1012.5 |
| 20260505175002 | 16 | 341 | 6.4 | 14.5 | 0.00 | 0.00 | 0.00 | 60 | 1012.5 |
| 20260505174502 | 16 | 341 | 6.4 | 16.1 | 0.00 | 0.00 | 0.00 | 60 | 1012.5 |
| 20260505174002 | 16 | 346 | 8.0 | 19.3 | 0.00 | 0.00 | 0.00 | 60 | 1012.5 |
| 20260505173502 | 16 | 346 | 9.7 | 19.3 | 0.00 | 0.00 | 0.00 | 60 | 1012.5 |
| 20260505173002 | 16 | 345 | 9.7 | 17.7 | 0.00 | 0.00 | 0.00 | 60 | 1012.6 |
| 20260505172502 | 16 | 345 | 9.7 | 17.7 | 0.00 | 0.00 | 0.00 | 60 | 1012.6 |
| 20260505172002 | 16 | 343 | 9.7 | 17.7 | 0.00 | 0.00 | 0.00 | 59 | 1012.8 |
| 20260505171502 | 16 | 344 | 8.0 | 16.1 | 0.00 | 0.00 | 0.00 | 58 | 1012.7 |
| 20260505171003 | 16 | 346 | 8.0 | 17.7 | 0.00 | 0.00 | 0.00 | 59 | 1012.8 |
| 20260505170502 | 17 | 341 | 8.0 | 17.7 | 0.00 | 0.00 | 0.00 | 58 | 1012.9 |
| 20260505170002 | 17 | 343 | 8.0 | 16.1 | 0.00 | 0.00 | 0.00 | 58 | 1012.8 |
| 20260505165502 | 17 | 351 | 8.0 | 17.7 | 0.00 | 0.00 | 0.00 | 58 | 1012.8 |
| 20260505165002 | 17 | 354 | 8.0 | 17.7 | 0.00 | 0.00 | 0.00 | 58 | 1012.8 |
| 20260505164502 | 17 | 355 | 6.4 | 16.1 | 0.00 | 0.00 | 0.00 | 58 | 1012.8 |
| 20260505164002 | 18 | 348 | 6.4 | 17.7 | 0.00 | 0.00 | 0.00 | 57 | 1012.7 |
| 20260505163502 | 18 | 339 | 8.0 | 17.7 | 0.00 | 0.00 | 0.00 | 56 | 1012.6 |
| 20260505163002 | 18 | 340 | 8.0 | 16.1 | 0.00 | 0.00 | 0.00 | 55 | 1012.7 |
| 20260505162523 | 18 | 344 | 8.0 | 16.1 | 0.00 | 0.00 | 0.00 | 54 | 1012.7 |
| 20260505162002 | 19 | 345 | 6.4 | 16.1 | 0.00 | 0.00 | 0.00 | 53 | 1012.7 |
| 20260505161523 | 20 | 350 | 8.0 | 17.7 | 0.00 | 0.00 | 0.00 | 51 | 1012.6 |
| 20260505161002 | 20 | 350 | 9.7 | 20.9 | 0.00 | 0.00 | 0.00 | 51 | 1012.8 |
| 20260505160502 | 21 | 342 | 11.3 | 20.9 | 0.00 | 0.00 | 0.00 | 51 | 1012.8 |
| 20260505153002 | 21 | 343 | 9.7 | 19.3 | 0.00 | 0.00 | 0.00 | 51 | 1012.9 |
| 20260505152502 | 21 | 339 | 9.7 | 24.1 | 0.00 | 0.00 | 0.00 | 53 | 1012.9 |
| 20260505152002 | 21 | 330 | 8.0 | 24.1 | 0.00 | 0.00 | 0.00 | 51 | 1013.0 |
| 20260505151502 | 21 | 328 | 8.0 | 19.3 | 0.00 | 0.00 | 0.00 | 52 | 1012.9 |
| 20260505151002 | 21 | 334 | 9.7 | 20.9 | 0.00 | 0.00 | 0.00 | 49 | 1012.9 |
| 20260505150502 | 21 | 335 | 11.3 | 22.5 | 0.00 | 0.00 | 0.00 | 50 | 1012.9 |
| 20260505140502 | 21 | 341 | 9.7 | 22.5 | 0.00 | 0.00 | 0.00 | 55 | 1013.2 |
| 20260505125002 | 21 | 343 | 9.7 | 20.9 | 0.00 | 0.00 | 0.00 | 56 | 1013.5 |
| 20260505124502 | 21 | 343 | 9.7 | 20.9 | 0.00 | 0.00 | 0.00 | 56 | 1013.5 |
| 20260505124002 | 21 | 342 | 9.7 | 20.9 | 0.00 | 0.00 | 0.00 | 56 | 1013.5 |
| 20260505123502 | 20 | 346 | 9.7 | 20.9 | 0.00 | 0.00 | 0.00 | 58 | 1013.5 |
| 20260505123002 | 20 | 346 | 9.7 | 20.9 | 0.00 | 0.00 | 0.00 | 57 | 1013.5 |
| 20260505122502 | 20 | 344 | 8.0 | 19.3 | 0.00 | 0.00 | 0.00 | 60 | 1013.5 |
| 20260505122023 | 20 | 341 | 9.7 | 19.3 | 0.00 | 0.00 | 0.00 | 61 | 1013.5 |
| 20260505121502 | 19 | 344 | 9.7 | 19.3 | 0.00 | 0.00 | 0.00 | 61 | 1013.6 |
| 20260505121002 | 19 | 354 | 8.0 | 19.3 | 0.00 | 0.00 | 0.00 | 63 | 1013.5 |
| 20260505120502 | 18 | 352 | 9.7 | 22.5 | 0.00 | 0.00 | 0.00 | 65 | 1013.6 |
| 20260505120002 | 18 | 346 | 9.7 | 22.5 | 0.00 | 0.00 | 0.00 | 63 | 1013.5 |
| 20260505115502 | 17 | 343 | 9.7 | 22.5 | 0.00 | 0.00 | 0.00 | 65 | 1013.6 |
| 20260505115002 | 17 | 349 | 9.7 | 22.5 | 0.00 | 0.00 | 0.00 | 66 | 1013.6 |
| 20260505114503 | 17 | 356 | 8.0 | 16.1 | 0.00 | 0.00 | 0.00 | 65 | 1013.6 |
| 20260505114002 | 17 | 350 | 9.7 | 20.9 | 0.00 | 0.00 | 0.00 | 64 | 1013.6 |
| 20260505113502 | 17 | 344 | 11.3 | 20.9 | 0.00 | 0.00 | 0.00 | 63 | 1013.6 |
| 20260505113003 | 17 | 340 | 9.7 | 19.3 | 0.00 | 0.00 | 0.00 | 63 | 1013.6 |
| 20260505112502 | 18 | 348 | 8.0 | 19.3 | 0.00 | 0.00 | 0.00 | 63 | 1013.6 |
| 20260505112002 | 18 | 348 | 8.0 | 19.3 | 0.00 | 0.00 | 0.00 | 63 | 1013.6 |
| 20260505111502 | 18 | 351 | 8.0 | 17.7 | 0.00 | 0.00 | 0.00 | 63 | 1013.7 |
| 20260505111003 | 18 | 4 | 6.4 | 16.1 | 0.00 | 0.00 | 0.00 | 65 | 1013.7 |
| 20260505110502 | 18 | 2 | 6.4 | 19.3 | 0.00 | 0.00 | 0.00 | 66 | 1013.7 |
| 20260505102002 | 16 | 348 | 9.7 | 19.3 | 0.00 | 0.00 | 0.00 | 70 | 1013.9 |
| 20260505101503 | 16 | 348 | 9.7 | 19.3 | 0.00 | 0.00 | 0.00 | 69 | 1013.9 |
| 20260505101002 | 16 | 353 | 8.0 | 17.7 | 0.00 | 0.00 | 0.00 | 70 | 1014.0 |
| 20260505100502 | 16 | 3 | 6.4 | 16.1 | 0.00 | 0.00 | 0.00 | 71 | 1014.0 |
| 20260505100003 | 15 | 5 | 6.4 | 16.1 | 0.00 | 0.00 | 0.00 | 71 | 1014.1 |
| 20260505095502 | 15 | 13 | 6.4 | 17.7 | 0.00 | 0.00 | 0.00 | 72 | 1014.1 |
| 20260505095023 | 15 | 8 | 6.4 | 17.7 | 0.00 | 0.00 | 0.00 | 71 | 1014.0 |
| 20260505094502 | 15 | 359 | 6.4 | 17.7 | 0.00 | 0.00 | 0.00 | 71 | 1014.1 |
| 20260505094002 | 15 | 2 | 8.0 | 19.3 | 0.00 | 0.00 | 0.00 | 72 | 1014.1 |
| 20260505093502 | 15 | 3 | 8.0 | 19.3 | 0.00 | 0.00 | 0.00 | 72 | 1014.1 |
| 20260505093002 | 15 | 358 | 8.0 | 17.7 | 0.00 | 0.00 | 0.00 | 72 | 1014.2 |
| 20260505092523 | 15 | 354 | 6.4 | 17.7 | 0.00 | 0.00 | 0.00 | 73 | 1014.2 |
| 20260505092002 | 15 | 355 | 8.0 | 19.3 | 0.00 | 0.00 | 0.00 | 73 | 1014.3 |
| 20260505091502 | 15 | 348 | 9.7 | 19.3 | 0.00 | 0.00 | 0.00 | 73 | 1014.3 |
| 20260505091002 | 15 | 349 | 8.0 | 19.3 | 0.00 | 0.00 | 0.00 | 73 | 1014.3 |
| 20260505090502 | 15 | 355 | 6.4 | 17.7 | 0.00 | 0.00 | 0.00 | 73 | 1014.1 |
| 20260505090002 | 15 | 346 | 9.7 | 20.9 | 0.00 | 0.00 | 0.00 | 74 | 1014.1 |
| 20260505085502 | 15 | 345 | 9.7 | 20.9 | 0.00 | 0.00 | 0.00 | 73 | 1014.2 |
| 20260505085002 | 15 | 349 | 8.0 | 17.7 | 0.00 | 0.00 | 0.00 | 74 | 1014.3 |
| 20260505084503 | 15 | 2 | 8.0 | 17.7 | 0.00 | 0.00 | 0.00 | 75 | 1014.4 |
| 20260505084002 | 15 | 9 | 8.0 | 16.1 | 0.00 | 0.00 | 0.00 | 74 | 1014.5 |
| 20260505083503 | 15 | 2 | 8.0 | 16.1 | 0.00 | 0.00 | 0.00 | 76 | 1014.5 |
| 20260505083002 | 14 | 360 | 8.0 | 19.3 | 0.00 | 0.00 | 0.00 | 77 | 1014.5 |
| 20260505082502 | 14 | 358 | 8.0 | 19.3 | 0.00 | 0.00 | 0.00 | 77 | 1014.6 |
| 20260505082003 | 13 | 351 | 6.4 | 17.7 | 0.00 | 0.00 | 0.00 | 77 | 1014.7 |
| 20260505081502 | 13 | 334 | 8.0 | 17.7 | 0.00 | 0.00 | 0.00 | 78 | 1014.7 |
| 20260505081002 | 13 | 340 | 8.0 | 19.3 | 0.00 | 0.00 | 0.00 | 78 | 1014.5 |
| 20260505080502 | 13 | 341 | 8.0 | 19.3 | 0.00 | 0.00 | 0.00 | 78 | 1014.6 |
| 20260505080002 | 13 | 347 | 8.0 | 19.3 | 0.00 | 0.00 | 0.00 | 78 | 1014.6 |
| 20260505075502 | 12 | 357 | 8.0 | 20.9 | 0.00 | 0.00 | 0.00 | 79 | 1014.6 |
| 20260505075002 | 12 | 352 | 8.0 | 20.9 | 0.00 | 0.00 | 0.00 | 78 | 1014.5 |
| 20260505074502 | 12 | 351 | 9.7 | 19.3 | 0.00 | 0.00 | 0.00 | 79 | 1014.4 |
| 20260505074002 | 12 | 350 | 8.0 | 19.3 | 0.00 | 0.00 | 0.00 | 79 | 1014.5 |
| 20260505073502 | 12 | 349 | 6.4 | 17.7 | 0.00 | 0.00 | 0.00 | 80 | 1014.5 |
| 20260505073002 | 12 | 346 | 6.4 | 16.1 | 0.00 | 0.00 | 0.00 | 80 | 1014.4 |
| 20260505072524 | 12 | 351 | 4.8 | 14.5 | 0.00 | 0.00 | 0.00 | 81 | 1014.3 |
| 20260505072002 | 12 | 354 | 6.4 | 17.7 | 0.00 | 0.00 | 0.00 | 81 | 1014.4 |
| 20260505071502 | 12 | 351 | 6.4 | 14.5 | 0.00 | 0.00 | 0.00 | 81 | 1014.2 |
| 20260505071002 | 12 | 349 | 4.8 | 14.5 | 0.00 | 0.00 | 0.00 | 81 | 1014.1 |
| 20260505070502 | 12 | 354 | 4.8 | 16.1 | 0.00 | 0.00 | 0.00 | 81 | 1014.2 |
| 20260505070023 | 12 | 352 | 4.8 | 16.1 | 0.00 | 0.00 | 0.00 | 82 | 1014.2 |
| 20260505065502 | 12 | 346 | 4.8 | 14.5 | 0.00 | 0.00 | 0.00 | 82 | 1014.2 |
| 20260505065002 | 12 | 344 | 3.2 | 9.7 | 0.00 | 0.00 | 0.00 | 82 | 1014.3 |
| 20260505064502 | 12 | 337 | 3.2 | 9.7 | 0.00 | 0.00 | 0.00 | 82 | 1014.3 |
| 20260505064002 | 12 | 328 | 3.2 | 9.7 | 0.00 | 0.00 | 0.00 | 82 | 1014.4 |
| 20260505063524 | 12 | 346 | 1.6 | 8.0 | 0.00 | 0.00 | 0.00 | 83 | 1014.5 |
| 20260505063003 | 12 | 16 | 1.6 | 8.0 | 0.00 | 0.00 | 0.00 | 83 | 1014.2 |
| 20260505062502 | 11 | 8 | 1.6 | 6.4 | 0.00 | 0.00 | 0.00 | 83 | 1014.3 |
| 20260505062002 | 11 | 7 | 1.6 | 6.4 | 0.00 | 0.00 | 0.00 | 83 | 1014.3 |
| 20260505061524 | 11 | 354 | 0.0 | 4.8 | 0.00 | 0.00 | 0.00 | 83 | 1014.3 |
| 20260505061002 | 11 | 310 | 0.0 | 3.2 | 0.00 | 0.00 | 0.00 | 83 | 1014.3 |
| 20260505060502 | 11 | 331 | 1.6 | 12.9 | 0.00 | 0.00 | 0.00 | 83 | 1014.2 |
| 20260505060002 | 11 | 346 | 3.2 | 12.9 | 0.00 | 0.00 | 0.00 | 83 | 1014.2 |
| 20260505055523 | 11 | 4 | 3.2 | 9.7 | 0.00 | 0.00 | 0.00 | 83 | 1014.2 |
| 20260505055002 | 11 | 10 | 1.6 | 9.7 | 0.00 | 0.00 | 0.00 | 83 | 1014.2 |
| 20260505054523 | 11 | 350 | 1.6 | 12.9 | 0.00 | 0.00 | 0.00 | 83 | 1014.1 |
| 20260505054003 | 11 | 3 | 3.2 | 12.9 | 0.00 | 0.00 | 0.00 | 83 | 1014.2 |
| 20260505053503 | 11 | 15 | 3.2 | 8.0 | 0.00 | 0.00 | 0.00 | 83 | 1014.1 |
| 20260505053003 | 11 | 4 | 3.2 | 8.0 | 0.00 | 0.00 | 0.00 | 83 | 1014.1 |
| 20260505052503 | 11 | 350 | 3.2 | 12.9 | 0.00 | 0.00 | 0.00 | 83 | 1013.9 |
| 20260505052002 | 11 | 356 | 4.8 | 12.9 | 0.00 | 0.00 | 0.00 | 83 | 1013.9 |
| 20260505051523 | 11 | 360 | 4.8 | 12.9 | 0.00 | 0.00 | 0.00 | 83 | 1013.9 |
| 20260505051024 | 12 | 349 | 3.2 | 11.3 | 0.00 | 0.00 | 0.00 | 83 | 1013.9 |
| 20260505050502 | 12 | 349 | 3.2 | 12.9 | 0.00 | 0.00 | 0.00 | 83 | 1013.9 |
| 20260505041523 | 12 | 355 | 3.2 | 8.0 | 0.00 | 0.00 | 0.00 | 82 | 1013.9 |
| 20260505041002 | 12 | 7 | 3.2 | 12.9 | 0.00 | 0.00 | 0.00 | 82 | 1013.9 |
| 20260505040523 | 12 | 19 | 3.2 | 12.9 | 0.00 | 0.00 | 0.00 | 82 | 1014.0 |
| 20260505040023 | 12 | 16 | 3.2 | 9.7 | 0.00 | 0.00 | 0.00 | 82 | 1014.0 |
| 20260505035502 | 12 | 14 | 3.2 | 9.7 | 0.00 | 0.00 | 0.00 | 82 | 1013.9 |
| 20260505035002 | 12 | 11 | 3.2 | 8.0 | 0.00 | 0.00 | 0.00 | 82 | 1014.0 |
| 20260505034523 | 12 | 6 | 3.2 | 9.7 | 0.00 | 0.00 | 0.00 | 82 | 1013.9 |
| 20260505034002 | 12 | 8 | 4.8 | 12.9 | 0.00 | 0.00 | 0.00 | 82 | 1014.1 |
| 20260505033502 | 12 | 9 | 4.8 | 12.9 | 0.00 | 0.00 | 0.00 | 81 | 1014.1 |
| 20260505033002 | 12 | 8 | 3.2 | 12.9 | 0.00 | 0.00 | 0.00 | 81 | 1014.1 |
| 20260505032502 | 12 | 7 | 3.2 | 12.9 | 0.00 | 0.00 | 0.00 | 81 | 1014.2 |
| 20260505032003 | 12 | 3 | 1.6 | 12.9 | 0.00 | 0.00 | 0.00 | 81 | 1014.2 |
| 20260505031503 | 12 | 5 | 1.6 | 6.4 | 0.00 | 0.00 | 0.00 | 81 | 1014.3 |
| 20260505031003 | 12 | 17 | 1.6 | 6.4 | 0.00 | 0.00 | 0.00 | 81 | 1014.2 |
| 20260505030503 | 12 | 11 | 3.2 | 8.0 | 0.00 | 0.00 | 0.00 | 81 | 1014.2 |
| 20260505030003 | 12 | 11 | 3.2 | 8.0 | 0.00 | 0.00 | 0.00 | 81 | 1014.2 |
| 20260505025503 | 12 | 4 | 3.2 | 9.7 | 0.00 | 0.00 | 0.00 | 81 | 1014.1 |
| 20260505025003 | 12 | 348 | 3.2 | 9.7 | 0.00 | 0.00 | 0.00 | 81 | 1014.1 |
| 20260505024503 | 12 | 337 | 1.6 | 4.8 | 0.00 | 0.00 | 0.00 | 81 | 1014.1 |
| 20260505024003 | 12 | 352 | 1.6 | 6.4 | 0.00 | 0.00 | 0.00 | 81 | 1014.1 |
| 20260505023502 | 12 | 359 | 1.6 | 6.4 | 0.00 | 0.00 | 0.00 | 81 | 1014.1 |
| 20260505023023 | 12 | 3 | 3.2 | 12.9 | 0.00 | 0.00 | 0.00 | 81 | 1014.2 |
| 20260505022502 | 12 | 6 | 3.2 | 12.9 | 0.00 | 0.00 | 0.00 | 81 | 1014.1 |
| 20260505022002 | 12 | 9 | 3.2 | 12.9 | 0.00 | 0.00 | 0.00 | 81 | 1014.2 |
| 20260505021503 | 12 | 6 | 4.8 | 12.9 | 0.00 | 0.00 | 0.00 | 81 | 1014.2 |
| 20260505021003 | 12 | 2 | 4.8 | 12.9 | 0.00 | 0.00 | 0.00 | 82 | 1014.3 |
| 20260505020503 | 12 | 359 | 4.8 | 11.3 | 0.00 | 0.00 | 0.00 | 82 | 1014.2 |
| 20260505020003 | 12 | 1 | 3.2 | 9.7 | 0.00 | 0.00 | 0.00 | 82 | 1014.3 |
| 20260505015503 | 12 | 360 | 4.8 | 16.1 | 0.00 | 0.00 | 0.00 | 82 | 1014.3 |
| 20260505015024 | 12 | 2 | 4.8 | 16.1 | 0.00 | 0.00 | 0.00 | 82 | 1014.2 |
| 20260505014524 | 12 | 5 | 4.8 | 12.9 | 0.00 | 0.00 | 0.00 | 82 | 1014.2 |
| 20260505014003 | 12 | 4 | 4.8 | 12.9 | 0.00 | 0.00 | 0.00 | 82 | 1014.3 |
| 20260505013502 | 12 | 357 | 4.8 | 12.9 | 0.00 | 0.00 | 0.00 | 82 | 1014.3 |
| 20260505013002 | 12 | 354 | 4.8 | 12.9 | 0.00 | 0.00 | 0.00 | 82 | 1014.4 |
| 20260505012502 | 12 | 1 | 4.8 | 9.7 | 0.00 | 0.00 | 0.00 | 82 | 1014.5 |
| 20260505012002 | 12 | 6 | 4.8 | 17.7 | 0.00 | 0.00 | 0.00 | 82 | 1014.6 |